[[{"header":{"parameterUnit":"m.s-1","parameterCategory":1,"la1":30.2991,"la2":30.254,"lo1":-89.0895,"lo2":-89.0444,"dy":0.0017,"dx":0.0017,"nx":28,"ny":28,"refTime":"2024-10-15T09:00:00:Z","depth":0,"parameterNumber":2,"parameterNumberName":"U-component_of_WINDS"},"data":[0,0,0,0,0,0,0,0,0,0,0,0,0,0,0,0,0,0,0,0,0,0,0,0,0,0,0,0,0,0,0,0,0,0,0,0,0,0,0,0,0,0,0,0,0,0,0,0,0,0,0,0,0,0,0,0,0,0,-0.4305,-0.4305,0,-0.426,-0.426,-0.4259,-0.4217,-0.4216,-0.4216,-0.4215,-0.4172,-0.4172,-0.4171,0,0,0,0,0,0,0,0,0,0,0,0,0,-0.4358,-0.4357,-0.4305,-0.4305,-0.4304,-0.426,-0.426,-0.4259,-0.4217,-0.4216,-0.4215,-0.4215,-0.4173,-0.4172,-0.4171,0,0,0,0,0,0,0,0,0,0,0,0,0,-0.4326,-0.4357,-0.4305,-0.4278,-0.4275,-0.426,-0.426,-0.4259,-0.4217,-0.4216,-0.4215,-0.4215,-0.4173,-0.4172,-0.4171,-0.4182,0,0,-0.4168,-0.4168,0,0,0,0,0,0,0,0,-0.4328,-0.4325,-0.4282,-0.4279,-0.4276,-0.4243,-0.4263,-0.4233,-0.4217,-0.4239,-0.4215,-0.4214,-0.4197,-0.4194,-0.4187,-0.418,-0.4178,-0.4168,-0.4168,-0.4167,-0.4167,0,0,0,0,0,0,0,-0.433,-0.4326,-0.4287,-0.4282,-0.4278,-0.4269,-0.4263,-0.4257,-0.4223,-0.4237,-0.4234,-0.4229,-0.4195,-0.4188,-0.4186,-0.4177,-0.4168,-0.4167,-0.4167,-0.4166,-0.4176,-0.4177,0,0,0,0,0,0,-0.4336,-0.4328,-0.4289,-0.4286,-0.4301,-0.4268,-0.4262,-0.4255,-0.4223,-0.4217,-0.423,-0.4227,-0.419,-0.4187,-0.4184,-0.4195,-0.4167,-0.4166,-0.4166,-0.4176,-0.4177,-0.4177,0,0,0,0,0,0,-0.4338,-0.4333,-0.4291,-0.4306,-0.43,-0.4268,-0.426,-0.4254,-0.4247,-0.4217,-0.4212,-0.4229,-0.419,-0.4186,-0.4182,-0.4193,-0.4166,-0.4165,-0.4175,-0.4176,-0.4177,-0.4216,0,0,0,0,0,0,-0.4339,-0.4334,-0.4337,-0.4307,-0.4299,-0.4289,-0.4261,-0.4254,-0.4245,-0.4242,-0.4215,-0.421,-0.4189,-0.4184,-0.4182,-0.4191,-0.4164,-0.4174,-0.4175,-0.4177,-0.4214,-0.4218,-0.4222,0,0,0,0,0,-0.4341,-0.435,-0.4337,-0.4333,-0.4302,-0.4289,-0.4285,-0.426,-0.4246,-0.425,-0.423,-0.4211,-0.4192,-0.4184,-0.4181,-0.419,-0.4173,-0.4175,-0.4177,-0.4212,-0.4217,-0.4222,0,0,0,0,0,0,-0.4384,-0.4346,-0.4331,-0.433,-0.4313,-0.4282,-0.4285,-0.4267,-0.4254,-0.4251,-0.4221,-0.4215,-0.4216,-0.4203,-0.4194,-0.4199,-0.418,-0.4181,-0.4208,-0.4213,-0.4217,-0.422,-0.4163,0,0,0,0,0,-0.4393,-0.4384,-0.4352,-0.4354,-0.4346,-0.4317,-0.4311,-0.4293,-0.4274,-0.4267,-0.4248,-0.4232,-0.4222,-0.4217,-0.4206,-0.4211,-0.4206,-0.4216,-0.4221,-0.4225,-0.4226,-0.4228,-0.4233,-0.4184,-0.4184,-0.4184,0,0,-0.4412,-0.439,-0.4387,-0.4362,-0.4347,-0.434,-0.4312,-0.4306,-0.43,-0.4267,-0.4262,-0.4248,-0.4228,-0.4229,-0.4228,-0.4218,-0.4239,-0.4227,-0.423,-0.423,-0.4231,-0.4236,-0.424,-0.4185,-0.4185,-0.4184,0,0,-0.4443,-0.4425,-0.4425,-0.441,-0.4387,-0.4367,-0.4368,-0.4339,-0.4328,-0.4323,-0.4297,-0.4292,-0.4276,-0.4263,-0.4254,-0.428,-0.4262,-0.4278,-0.4301,-0.4304,-0.4308,-0.4311,-0.4321,-0.4325,-0.428,-0.428,-0.428,0,-0.447,-0.4457,-0.4428,-0.4423,-0.4413,-0.4381,-0.4382,-0.4369,-0.4345,-0.4339,-0.4328,-0.4307,-0.4292,-0.4289,-0.4296,-0.429,-0.429,-0.4281,-0.4309,-0.4312,-0.4315,-0.4324,-0.4328,-0.4282,-0.4282,-0.4281,-0.4281,0,-0.4491,-0.4483,-0.4486,-0.4461,-0.4452,-0.445,-0.4422,-0.4416,-0.4399,-0.4381,-0.4377,-0.4357,-0.4342,-0.434,-0.4324,-0.4336,-0.433,-0.4315,-0.4295,-0.4322,-0.433,-0.4333,-0.4285,-0.4284,-0.4283,-0.4283,0,0,-0.4548,-0.4507,-0.4508,-0.4497,-0.4469,-0.4463,-0.446,-0.4444,-0.444,-0.4424,-0.4422,-0.4409,-0.4394,-0.4384,-0.4366,-0.4368,-0.4391,-0.4352,-0.4351,-0.436,-0.4404,-0.4416,-0.4421,-0.4379,-0.4379,-0.438,-0.4406,0,-0.4574,-0.4565,-0.4539,-0.4539,-0.4531,-0.4501,-0.4498,-0.4482,-0.4465,-0.4457,-0.4439,-0.4431,-0.4412,-0.4406,-0.4406,-0.4388,-0.44,-0.4386,-0.4377,-0.4377,-0.4383,-0.4425,-0.4438,-0.4463,-0.4409,-0.4409,-0.441,0,-0.4604,-0.4588,-0.4587,-0.4559,-0.4555,-0.4553,-0.4537,-0.4529,-0.451,-0.4498,-0.4487,-0.4467,-0.4463,-0.4445,-0.444,-0.4431,-0.4426,-0.4417,-0.4417,-0.4415,-0.4395,-0.4425,-0.4471,-0.4475,-0.4414,-0.4414,-0.4413,0,-0.4646,-0.4625,-0.4621,-0.4612,-0.458,-0.4579,-0.4566,-0.4546,-0.4538,-0.4525,-0.452,-0.4506,-0.4499,-0.449,-0.4467,-0.4455,-0.4465,-0.4444,-0.4456,-0.4456,-0.4459,-0.4459,-0.4505,-0.4456,-0.4456,-0.4456,-0.4455,0,-0.4678,-0.4679,-0.4639,-0.4637,-0.4637,-0.4608,-0.4609,-0.4593,-0.4576,-0.4571,-0.4544,-0.4541,-0.451,-0.4503,-0.4485,-0.4484,-0.4482,-0.4472,-0.4468,-0.4475,-0.4476,-0.4471,-0.4469,-0.4457,-0.4456,-0.4456,-0.4456,0,-0.4725,-0.4699,-0.4693,-0.4662,-0.4654,-0.4656,-0.463,-0.4628,-0.4609,-0.4604,-0.4601,-0.4573,-0.4563,-0.4539,-0.4524,-0.4512,-0.4516,-0.4507,-0.4522,-0.4519,-0.4532,-0.4532,-0.4577,-0.4582,-0.4529,-0.453,-0.453,0,-0.4747,-0.4747,-0.4716,-0.471,-0.4697,-0.4688,-0.468,-0.4652,-0.4644,-0.4623,-0.4623,-0.4611,-0.46,-0.4587,-0.4566,-0.4555,-0.4545,-0.4562,-0.4544,-0.4551,-0.4546,-0.4546,-0.4546,-0.4566,-0.4567,-0.4568,-0.4568,0,-0.4791,-0.4777,-0.4765,-0.4749,-0.474,-0.4726,-0.4711,-0.4708,-0.4676,-0.467,-0.4659,-0.4651,-0.4634,-0.4624,-0.4609,-0.4597,-0.4578,-0.4574,-0.4576,-0.4583,-0.4592,-0.4588,-0.4534,-0.4573,-0.4573,-0.4572,-0.4572,-0.4572,-0.4826,-0.4824,-0.4802,-0.479,-0.4775,-0.4761,-0.4757,-0.4738,-0.4728,-0.4712,-0.4696,-0.4687,-0.4669,-0.4647,-0.4636,-0.463,-0.462,-0.4623,-0.4623,-0.4625,-0.4628,-0.4593,-0.4627,-0.4627,-0.4627,-0.4626,-0.4626,0,-0.4868,-0.4852,-0.4841,-0.482,-0.4811,-0.4792,-0.4774,-0.4768,-0.476,-0.4744,-0.4733,-0.4722,-0.4711,-0.4689,-0.4677,-0.4676,-0.4667,-0.4674,-0.4674,-0.4671,-0.4638,-0.4637,-0.4681,-0.4681,-0.4681,-0.4681,-0.4681,-0.4681,-0.4888,-0.4884,-0.4868,-0.4857,-0.4841,-0.4831,-0.4823,-0.481,-0.4797,-0.4785,-0.4775,-0.476,-0.4742,-0.4728,-0.4718,-0.4712,-0.4709,-0.4719,-0.471,-0.4679,-0.4674,-0.4669,-0.4668,-0.4718,-0.4718,-0.4744,-0.4744,-0.4745]},{"header":{"parameterUnit":"m.s-1","parameterCategory":1,"la1":30.2991,"la2":30.254,"lo1":-89.0895,"lo2":-89.0444,"dy":0.0017,"dx":0.0017,"nx":28,"ny":28,"refTime":"2024-10-15T09:00:00:Z","depth":0,"parameterNumber":3,"parameterNumberName":"V-component_of_WINDS"},"data":[0,0,0,0,0,0,0,0,0,0,0,0,0,0,0,0,0,0,0,0,0,0,0,0,0,0,0,0,0,0,0,0,0,0,0,0,0,0,0,0,0,0,0,0,0,0,0,0,0,0,0,0,0,0,0,0,0,0,-0.556,-0.556,0,-0.5536,-0.5536,-0.5535,-0.5505,-0.5505,-0.5504,-0.5504,-0.548,-0.5479,-0.5479,0,0,0,0,0,0,0,0,0,0,0,0,0,-0.558,-0.558,-0.556,-0.556,-0.5559,-0.5536,-0.5536,-0.5535,-0.5505,-0.5505,-0.5504,-0.5503,-0.548,-0.5479,-0.5479,0,0,0,0,0,0,0,0,0,0,0,0,0,-0.5565,-0.558,-0.556,-0.5541,-0.5539,-0.5536,-0.5536,-0.5535,-0.5505,-0.5505,-0.5504,-0.5503,-0.548,-0.5479,-0.5479,-0.5492,0,0,-0.5478,-0.5478,0,0,0,0,0,0,0,0,-0.5566,-0.5565,-0.5544,-0.5543,-0.554,-0.5523,-0.5534,-0.5521,-0.5505,-0.5518,-0.5504,-0.5503,-0.5495,-0.5493,-0.549,-0.5491,-0.549,-0.5478,-0.5478,-0.5478,-0.5478,0,0,0,0,0,0,0,-0.5567,-0.5565,-0.555,-0.5544,-0.5542,-0.5535,-0.5532,-0.5531,-0.5511,-0.5517,-0.5515,-0.5512,-0.5493,-0.5491,-0.5489,-0.549,-0.5478,-0.5478,-0.5478,-0.5478,-0.55,-0.5501,0,0,0,0,0,0,-0.5571,-0.5567,-0.5551,-0.555,-0.5552,-0.5535,-0.5532,-0.5529,-0.5511,-0.5507,-0.5513,-0.5511,-0.5491,-0.549,-0.5488,-0.5502,-0.5478,-0.5478,-0.5478,-0.55,-0.5501,-0.5501,0,0,0,0,0,0,-0.5572,-0.557,-0.5552,-0.5557,-0.5555,-0.5535,-0.5533,-0.5529,-0.5526,-0.5508,-0.5504,-0.5514,-0.5491,-0.5489,-0.5491,-0.5501,-0.5478,-0.5477,-0.5499,-0.55,-0.5501,-0.553,0,0,0,0,0,0,-0.5572,-0.557,-0.5575,-0.5558,-0.5554,-0.5555,-0.5533,-0.5529,-0.5526,-0.5523,-0.5507,-0.5504,-0.549,-0.5492,-0.5491,-0.55,-0.5477,-0.5498,-0.5499,-0.5501,-0.5528,-0.5532,-0.5536,0,0,0,0,0,-0.5573,-0.5584,-0.5575,-0.5573,-0.556,-0.5556,-0.5554,-0.5537,-0.5527,-0.5531,-0.5519,-0.5505,-0.55,-0.5493,-0.5491,-0.55,-0.5497,-0.5499,-0.55,-0.5527,-0.5532,-0.5536,0,0,0,0,0,0,-0.5602,-0.5581,-0.5571,-0.5577,-0.5568,-0.5551,-0.5556,-0.5543,-0.5537,-0.5535,-0.5515,-0.5512,-0.5517,-0.5509,-0.5501,-0.5512,-0.5497,-0.5498,-0.5517,-0.5521,-0.5525,-0.5526,-0.5477,0,0,0,0,0,-0.5609,-0.5608,-0.559,-0.5596,-0.5593,-0.5575,-0.5573,-0.5561,-0.5551,-0.5548,-0.5536,-0.5528,-0.5524,-0.5523,-0.5519,-0.5528,-0.5524,-0.5533,-0.5537,-0.554,-0.5541,-0.5546,-0.555,-0.5507,-0.5507,-0.5507,0,0,-0.5624,-0.5612,-0.5612,-0.5602,-0.5594,-0.5593,-0.5572,-0.5572,-0.5571,-0.5548,-0.5549,-0.5541,-0.553,-0.5536,-0.5538,-0.553,-0.5553,-0.5542,-0.5545,-0.5544,-0.5548,-0.5552,-0.5556,-0.5508,-0.5508,-0.5508,0,0,-0.5649,-0.5641,-0.5645,-0.5638,-0.5626,-0.5615,-0.5616,-0.5601,-0.5594,-0.5596,-0.5578,-0.5577,-0.5572,-0.5565,-0.5561,-0.5586,-0.5572,-0.5585,-0.5604,-0.5608,-0.5612,-0.5615,-0.5623,-0.5627,-0.5587,-0.5587,-0.5587,0,-0.5669,-0.5666,-0.5649,-0.565,-0.5647,-0.5626,-0.563,-0.5624,-0.5612,-0.561,-0.5601,-0.5594,-0.5586,-0.559,-0.5596,-0.5593,-0.5594,-0.5586,-0.5613,-0.5615,-0.5618,-0.5626,-0.5629,-0.5588,-0.5588,-0.5588,-0.5588,0,-0.5691,-0.569,-0.5695,-0.5684,-0.5681,-0.5684,-0.5667,-0.5666,-0.5655,-0.5645,-0.5647,-0.5636,-0.563,-0.563,-0.5619,-0.5633,-0.5628,-0.5616,-0.56,-0.5624,-0.5631,-0.5634,-0.5591,-0.559,-0.559,-0.5589,0,0,-0.5733,-0.5713,-0.5715,-0.571,-0.5696,-0.5695,-0.5698,-0.5692,-0.5691,-0.5684,-0.5686,-0.5682,-0.5672,-0.5667,-0.5655,-0.5659,-0.568,-0.5647,-0.5646,-0.5653,-0.5694,-0.5703,-0.5707,-0.5671,-0.5672,-0.5672,-0.5695,0,-0.5755,-0.5758,-0.5743,-0.575,-0.5749,-0.573,-0.5732,-0.5724,-0.5715,-0.5713,-0.5703,-0.5701,-0.5687,-0.5684,-0.5687,-0.5676,-0.5688,-0.5675,-0.5672,-0.5672,-0.5675,-0.571,-0.5719,-0.5741,-0.5698,-0.5698,-0.5699,0,-0.5782,-0.5776,-0.5783,-0.577,-0.5769,-0.5771,-0.5764,-0.5763,-0.5754,-0.5747,-0.5743,-0.5729,-0.5731,-0.5717,-0.5719,-0.5711,-0.5709,-0.5704,-0.5704,-0.5703,-0.5686,-0.5709,-0.5748,-0.5751,-0.5703,-0.5703,-0.5702,0,-0.5811,-0.5806,-0.5809,-0.5805,-0.579,-0.5792,-0.5786,-0.5776,-0.5774,-0.5768,-0.5766,-0.5762,-0.5759,-0.5755,-0.5741,-0.5732,-0.5746,-0.573,-0.574,-0.574,-0.5743,-0.5743,-0.5781,-0.5743,-0.5743,-0.5743,-0.5743,0,-0.5837,-0.5842,-0.5822,-0.5824,-0.5829,-0.5812,-0.5818,-0.581,-0.5802,-0.5802,-0.5786,-0.5786,-0.5768,-0.5767,-0.5756,-0.576,-0.5759,-0.5754,-0.5751,-0.5755,-0.5755,-0.5752,-0.575,-0.5744,-0.5744,-0.5744,-0.5743,0,-0.587,-0.5857,-0.5859,-0.5845,-0.5842,-0.5846,-0.5834,-0.5835,-0.5826,-0.5826,-0.5826,-0.581,-0.5808,-0.5794,-0.5789,-0.5782,-0.579,-0.5784,-0.5793,-0.579,-0.5801,-0.58,-0.5839,-0.5843,-0.5803,-0.5803,-0.5804,0,-0.5888,-0.5891,-0.5877,-0.5876,-0.5871,-0.587,-0.5867,-0.5852,-0.585,-0.5841,-0.5843,-0.584,-0.5836,-0.5834,-0.5823,-0.5819,-0.5813,-0.5827,-0.5812,-0.5816,-0.5812,-0.5812,-0.5812,-0.5829,-0.583,-0.583,-0.5831,0,-0.5919,-0.5913,-0.591,-0.5905,-0.5903,-0.5898,-0.5892,-0.5893,-0.5876,-0.5874,-0.5872,-0.587,-0.5865,-0.5862,-0.5856,-0.585,-0.5838,-0.5836,-0.5838,-0.5841,-0.5846,-0.5843,-0.58,-0.5834,-0.5834,-0.5834,-0.5834,-0.5833,-0.5944,-0.5947,-0.5938,-0.5935,-0.5929,-0.5925,-0.5925,-0.5916,-0.5914,-0.5909,-0.59,-0.5899,-0.5891,-0.5883,-0.5878,-0.5877,-0.587,-0.5873,-0.5873,-0.5874,-0.5876,-0.5847,-0.5876,-0.5876,-0.5876,-0.5876,-0.5876,0,-0.5975,-0.5968,-0.5966,-0.5959,-0.5958,-0.5947,-0.594,-0.5939,-0.5939,-0.5932,-0.593,-0.5927,-0.5925,-0.5914,-0.591,-0.5912,-0.5906,-0.5911,-0.5911,-0.5909,-0.5883,-0.5881,-0.5916,-0.5916,-0.5916,-0.5916,-0.5916,-0.5916,-0.599,-0.5993,-0.5986,-0.5987,-0.598,-0.5979,-0.5977,-0.5972,-0.5967,-0.5966,-0.5963,-0.5956,-0.5948,-0.5944,-0.5942,-0.5938,-0.5938,-0.5945,-0.594,-0.5915,-0.5911,-0.5907,-0.5906,-0.5945,-0.5945,-0.5966,-0.5966,-0.5966]}]]